Location: T�bingen+AIT
(48.5342°N, 9.0700°E)
Time: 20:29:39
(UTC+02:00)

Meteor 2-19 Rocket - Pass Details

Date: 14 September 2017
Orbit: 935 x 959 km, 82.5° (Epoch: 19 September)

Event Time Altitude Azimuth Distance (km) Brightness Sun altitude
Exits shadow 22:02:28 44° 156° (SSE) 1,277 4.7 -23.1°
Maximum altitude 22:04:19 65° 95° (E) 1,027 4.3 -23.3°
Drops below altitude 10° 22:10:18 10° 15° (NNE) 2,658 7.0 -24.1°
Sets 22:12:49 0° 13° (NNE) 3,606 7.8 -24.5°
